• In Belarus
  • List of Countries
  • For 7 days
  • Water Temperature
  • Satellite Maps
  • Weather Map
  • Weather Widgets
  • user-avatar
    Login

    Hourly Weather Kisangani

    Today, 19 January, Friday

    Time Temperature Precipitation Wind Pressure Humidity
    00:00 +25°C° 0 mm 0 mps 716 mmHg 44%
    01:00 +25°C° 0 mm 0 mps 716 mmHg 46%
    02:00 +23°C° 0 mm 0 mps 716 mmHg 47%
    03:00 +23°C° 0 mm 0 mps 716 mmHg 48%
    04:00 +22°C° 0 mm 0 mps 716 mmHg 49%
    05:00 +22°C° 0 mm 0 mps 716 mmHg 50%
    06:00 +23°C° 0 mm 0 mps 717 mmHg 49%
    07:00 +24°C° 0 mm 0 mps 717 mmHg 48%
    08:00 +25°C° 0 mm 0 mps 718 mmHg 42%
    09:00 +28°C° 0 mm 0 mps 718 mmHg 35%
    10:00 +31°C° 0 mm 0 mps 718 mmHg 29%
    11:00 +36°C° 0 mm 1 mps 718 mmHg 22%
    12:00 +37°C° 0 mm 1 mps 718 mmHg 20%
    13:00 +39°C° 0 mm 1 mps 717 mmHg 19%
    14:00 +40°C° 0 mm 1 mps 716 mmHg 19%
    15:00 +39°C° 0 mm 1 mps 716 mmHg 20%
    16:00 +37°C° 0 mm 1 mps 716 mmHg 21%
    17:00 +34°C° 0 mm 0 mps 715 mmHg 23%
    18:00 +32°C° 0 mm 0 mps 715 mmHg 28%
    19:00 +29°C° 0 mm 0 mps 716 mmHg 34%
    20:00 +26°C° 0 mm 0 mps 716 mmHg 39%
    21:00 +28°C° 0 mm 1 mps 716 mmHg 44%
    22:00 +27°C° 0 mm 1 mps 717 mmHg 48%
    23:00 +26°C° 0 mm 1 mps 717 mmHg 53%

    Tomorrow, 20 January, Saturday

    Time Temperature Precipitation Wind Pressure Humidity
    00:00 +26°C° 0 mm 1 mps 717 mmHg 58%
    01:00 +25°C° 0 mm 1 mps 717 mmHg 63%
    02:00 +25°C° 0 mm 1 mps 717 mmHg 68%
    03:00 +24°C° 0 mm 1 mps 717 mmHg 71%
    04:00 +24°C° 0 mm 1 mps 717 mmHg 75%
    05:00 +21°C° 0 mm 0 mps 717 mmHg 78%
    06:00 +22°C° 0 mm 0 mps 718 mmHg 75%
    07:00 +23°C° 0 mm 0 mps 718 mmHg 71%
    08:00 +26°C° 0 mm 1 mps 719 mmHg 67%
    09:00 +29°C° 0 mm 1 mps 719 mmHg 57%
    10:00 +32°C° 0 mm 1 mps 719 mmHg 48%
    11:00 +35°C° 0 mm 1 mps 719 mmHg 38%
    12:00 +34°C° 0 mm 0 mps 718 mmHg 34%
    13:00 +36°C° 0 mm 0 mps 718 mmHg 31%
    14:00 +37°C° 0 mm 0 mps 717 mmHg 28%
    15:00 +36°C° 0 mm 0 mps 716 mmHg 29%
    16:00 +35°C° 0 mm 0 mps 716 mmHg 30%
    17:00 +33°C° 0 mm 0 mps 715 mmHg 31%
    18:00 +31°C° 0 mm 0 mps 715 mmHg 37%
    19:00 +29°C° 0 mm 0 mps 715 mmHg 42%
    20:00 +29°C° 0 mm 1 mps 716 mmHg 48%
    21:00 +28°C° 0 mm 1 mps 716 mmHg 50%
    22:00 +28°C° 0 mm 1 mps 716 mmHg 52%
    23:00 +27°C° 0 mm 1 mps 717 mmHg 53%

    Day after tomorrow, 21 January, Sunday

    Time Temperature Precipitation Wind Pressure Humidity
    00:00 +26°C° 0 mm 1 mps 716 mmHg 55%
    01:00 +26°C° 0 mm 1 mps 716 mmHg 57%
    02:00 +26°C° 0 mm 1 mps 716 mmHg 58%
    03:00 +25°C° 0 mm 1 mps 716 mmHg 61%
    04:00 +24°C° 0 mm 1 mps 716 mmHg 64%
    05:00 +24°C° 0 mm 1 mps 716 mmHg 66%
    06:00 +25°C° 0 mm 1 mps 716 mmHg 66%
    07:00 +25°C° 0 mm 1 mps 717 mmHg 66%
    08:00 +26°C° 0 mm 1 mps 718 mmHg 66%
    09:00 +30°C° 0 mm 1 mps 718 mmHg 56%
    10:00 +33°C° 0 mm 1 mps 718 mmHg 46%
    11:00 +37°C° 0 mm 1 mps 719 mmHg 36%
    12:00 +39°C° 0 mm 1 mps 718 mmHg 31%
    13:00 +40°C° 0 mm 1 mps 717 mmHg 26%
    14:00 +42°C° 0 mm 1 mps 716 mmHg 22%
    15:00 +37°C° 0 mm 0 mps 715 mmHg 25%
    16:00 +35°C° 0 mm 0 mps 714 mmHg 29%
    17:00 +33°C° 0 mm 0 mps 714 mmHg 32%
    18:00 +31°C° 0 mm 0 mps 714 mmHg 35%
    19:00 +29°C° 0 mm 0 mps 715 mmHg 38%
    20:00 +28°C° 0 mm 0 mps 715 mmHg 41%
    21:00 +27°C° 0 mm 0 mps 715 mmHg 42%
    22:00 +26°C° 0 mm 0 mps 716 mmHg 44%
    23:00 +28°C° 0 mm 1 mps 716 mmHg 45%

    22 January, Monday

    Time Temperature Precipitation Wind Pressure Humidity
    00:00 +25°C° 0 mm 0 mps 716 mmHg 46%
    01:00 +25°C° 0 mm 0 mps 715 mmHg 48%
    02:00 +24°C° 0 mm 0 mps 715 mmHg 49%
    03:00 +24°C° 0 mm 0 mps 715 mmHg 52%
    04:00 +23°C° 0 mm 0 mps 715 mmHg 54%
    05:00 +22°C° 0 mm 0 mps 715 mmHg 56%
    06:00 +23°C° 0 mm 0 mps 716 mmHg 56%
    07:00 +24°C° 0 mm 0 mps 717 mmHg 56%
    08:00 +27°C° 0 mm 1 mps 718 mmHg 56%
    09:00 +30°C° 0 mm 1 mps 718 mmHg 50%
    10:00 +32°C° 0 mm 1 mps 718 mmHg 44%
    11:00 +35°C° 0 mm 1 mps 718 mmHg 39%
    12:00 +36°C° 0 mm 1 mps 717 mmHg 35%
    13:00 +37°C° 0 mm 1 mps 716 mmHg 31%
    14:00 +40°C° 0 mm 1 mps 715 mmHg 27%
    15:00 +37°C° 0 mm 1 mps 715 mmHg 31%
    16:00 +36°C° 0 mm 1 mps 714 mmHg 35%
    17:00 +32°C° 0 mm 0 mps 714 mmHg 39%
    18:00 +31°C° 0 mm 0 mps 714 mmHg 43%
    19:00 +29°C° 0 mm 0 mps 715 mmHg 47%
    20:00 +27°C° 0 mm 0 mps 715 mmHg 51%
    21:00 +27°C° 0 mm 0 mps 715 mmHg 56%
    22:00 +28°C° 0 mm 1 mps 716 mmHg 61%
    23:00 +27°C° 0 mm 1 mps 716 mmHg 65%

    23 January, Tuesday

    Time Temperature Precipitation Wind Pressure Humidity
    00:00 +26°C° 0.3 mm 1 mps 716 mmHg 71%
    01:00 +25°C° 0.3 mm 1 mps 716 mmHg 77%
    02:00 +25°C° 0.3 mm 1 mps 715 mmHg 83%
    03:00 +25°C° 0 mm 1 mps 715 mmHg 85%
    04:00 +24°C° 0 mm 1 mps 716 mmHg 87%
    05:00 +24°C° 0 mm 1 mps 716 mmHg 89%
    06:00 +25°C° 0 mm 1 mps 716 mmHg 85%
    07:00 +26°C° 0 mm 1 mps 717 mmHg 82%
    08:00 +26°C° 0 mm 2 mps 717 mmHg 78%
    09:00 +29°C° 0 mm 2 mps 717 mmHg 67%
    10:00 +32°C° 0 mm 2 mps 718 mmHg 56%
    11:00 +35°C° 0 mm 2 mps 718 mmHg 45%
    12:00 +35°C° 0 mm 1 mps 717 mmHg 42%
    13:00 +35°C° 0 mm 1 mps 716 mmHg 40%
    14:00 +36°C° 0 mm 1 mps 715 mmHg 38%
    15:00 +35°C° 0.3 mm 1 mps 714 mmHg 42%
    16:00 +34°C° 0.3 mm 1 mps 714 mmHg 47%
    17:00 +34°C° 0.3 mm 2 mps 714 mmHg 51%
    18:00 +30°C° 5.8 mm 2 mps 714 mmHg 64%
    19:00 +28°C° 5.8 mm 2 mps 714 mmHg 76%
    20:00 +25°C° 5.8 mm 2 mps 714 mmHg 88%
    21:00 +25°C° 4 mm 2 mps 715 mmHg 91%
    22:00 +24°C° 4 mm 2 mps 716 mmHg 93%
    23:00 +24°C° 4 mm 1 mps 716 mmHg 95%

    24 January, Wednesday

    Time Temperature Precipitation Wind Pressure Humidity
    00:00 +24°C° 0.2 mm 1 mps 716 mmHg 95%
    01:00 +23°C° 0.2 mm 1 mps 716 mmHg 95%
    02:00 +23°C° 0.2 mm 2 mps 715 mmHg 95%
    03:00 +23°C° 0.3 mm 1 mps 715 mmHg 95%
    04:00 +23°C° 0.3 mm 1 mps 715 mmHg 96%
    05:00 +22°C° 0.3 mm 1 mps 716 mmHg 96%
    06:00 +23°C° 0 mm 1 mps 716 mmHg 95%
    07:00 +23°C° 0 mm 1 mps 717 mmHg 94%
    08:00 +21°C° 0 mm 0 mps 717 mmHg 93%
    09:00 +25°C° 0 mm 1 mps 718 mmHg 81%
    10:00 +28°C° 0 mm 1 mps 718 mmHg 69%
    11:00 +30°C° 0 mm 1 mps 718 mmHg 57%
    12:00 +32°C° 0 mm 1 mps 717 mmHg 51%
    13:00 +34°C° 0 mm 1 mps 717 mmHg 45%
    14:00 +34°C° 0 mm 0 mps 716 mmHg 39%
    15:00 +33°C° 0 mm 0 mps 715 mmHg 41%
    16:00 +32°C° 0 mm 0 mps 715 mmHg 44%
    17:00 +31°C° 0 mm 0 mps 715 mmHg 47%
    18:00 +29°C° 0 mm 0 mps 715 mmHg 53%
    19:00 +27°C° 0 mm 0 mps 715 mmHg 59%
    20:00 +25°C° 0 mm 0 mps 715 mmHg 66%
    21:00 +24°C° 0 mm 0 mps 716 mmHg 68%
    22:00 +24°C° 0 mm 0 mps 716 mmHg 70%
    23:00 +26°C° 0 mm 1 mps 716 mmHg 72%
    Show more